Petersburg, WV

5:49 AM EST on December 10, 2019 (GMT -0500)
Petersburg

Weather History for KW99 - September, 2019

Change the Weather History Date:

Monday, September 2, 2019

  Actual Average (KEKN) Record (KEKN)
Temperature  
Mean Temperature 72 °F -  
Max Temperature 85 °F 79 °F 93 °F (1953)
Min Temperature 60 °F 54 °F 38 °F (1999)
Cooling Degree Days 8    
Growing Degree Days 22 (Base 50)    
Moisture  
Dew Point 64 °F    
Average Humidity 78    
Maximum Humidity 100    
Minimum Humidity 49    
Precipitation  
Precipitation 0.00 in - - ()
Sea Level Pressure  
Sea Level Pressure 30.07 in    
Wind  
Wind Speed 2 mph (WNW)    
Max Wind Speed 10 mph    
Max Gust Speed 17 mph    
Visibility 8 miles    
Events Fog    
Averages and records for this station are not official NWS values.
T = Trace of Precipitation, MM = Missing Value Source: NWS Daily Summary

Daily Weather History Graph

Daily Weather History Graph

Search for Another Location

Airport or City:

Astronomy

Sep. 02, 2019 Rise Set
Actual Time 6:46 AM EDT 7:45 PM EDT
Civil Twilight 6:18 AM EDT 8:13 PM EDT
Nautical Twilight 5:46 AM EDT 8:45 PM EDT
Astronomical Twilight 5:12 AM EDT 9:19 PM EDT
Moon 10:24 AM EDT (9/2) 10:08 PM EDT (9/2)
Length of Visible Light 13h 54m
Length of Day
12h 59m
Waxing Crescent, 15% of the Moon is Illuminated
Sep 2
Waxing Crescent
Sep 5
First Quarter
Sep 14
Full
Sep 21
Last Quarter
Sep 28
New

Hourly Weather History & Observations

Time (EDT) Temp. Heat Index Dew Point Humidity Pressure Visibility Wind Dir Wind Speed Gust Speed Precip Events Conditions
12:15 AM 63.0 °F - 63.0 °F 100% 30.16 in 5.0 mi Calm Calm - N/A   Scattered Clouds
12:35 AM 61.9 °F - 61.9 °F 100% 30.16 in 1.5 mi Calm Calm - N/A   Scattered Clouds
12:55 AM 61.7 °F - 61.7 °F 100% 30.15 in 3.0 mi Calm Calm - N/A   Clear
1:15 AM 61.7 °F - 61.7 °F 100% 30.15 in 4.0 mi Calm Calm - N/A   Clear
1:35 AM 61.7 °F - 61.7 °F 100% 30.14 in 3.0 mi Calm Calm - N/A   Clear
1:55 AM 62.6 °F - 62.6 °F 100% 30.14 in 5.0 mi Calm Calm - N/A   Clear
2:15 AM 61.7 °F - 61.7 °F 100% 30.13 in 3.0 mi Calm Calm - N/A   Clear
2:35 AM 61.3 °F - 61.3 °F 100% 30.12 in 0.5 mi Calm Calm - N/A Fog Fog
2:55 AM 62.1 °F - 62.1 °F 100% 30.12 in 7.0 mi Calm Calm - N/A   Clear
3:15 AM 60.4 °F - 60.4 °F 100% 30.11 in 0.8 mi Calm Calm - N/A   Mostly Cloudy
3:35 AM 60.8 °F - 60.8 °F 100% 30.11 in 0.8 mi Calm Calm - N/A   Mostly Cloudy
3:55 AM 60.3 °F - 60.3 °F 100% 30.11 in 1.8 mi ESE 3.5 mph - N/A   Mostly Cloudy
4:15 AM 61.7 °F - 61.7 °F 100% 30.10 in 7.0 mi ESE 5.8 mph - N/A   Mostly Cloudy
4:35 AM 63.5 °F - 63.5 °F 100% 30.09 in 10.0 mi SE 8.1 mph - N/A   Scattered Clouds
4:55 AM 61.5 °F - 61.2 °F 99% 30.10 in 4.0 mi NW 5.8 mph - N/A   Scattered Clouds
5:15 AM 62.8 °F - 61.7 °F 96% 30.11 in 10.0 mi Calm Calm - N/A   Scattered Clouds
5:35 AM 62.8 °F - 62.4 °F 99% 30.10 in 7.0 mi Calm Calm - N/A   Mostly Cloudy
5:55 AM 62.4 °F - 62.1 °F 99% 30.10 in 5.0 mi Calm Calm - N/A   Mostly Cloudy
6:15 AM 62.4 °F - 62.2 °F 99% 30.10 in 7.0 mi Calm Calm - N/A   Scattered Clouds
6:35 AM 61.3 °F - 61.0 °F 99% 30.10 in 5.0 mi Calm Calm - N/A   Clear
7:15 AM 61.0 °F - 61.0 °F 100% 30.11 in 2.5 mi WNW 3.5 mph - N/A   Clear
7:35 AM 62.6 °F - 62.6 °F 100% 30.12 in 4.0 mi NW 3.5 mph - N/A   Mostly Cloudy
8:15 AM 64.4 °F - 63.5 °F 97% 30.11 in 7.0 mi Calm Calm - N/A   Overcast
8:35 AM 65.3 °F - 63.7 °F 94% 30.10 in 10.0 mi Calm Calm - N/A   Scattered Clouds
8:55 AM 66.6 °F - 64.2 °F 92% 30.10 in 10.0 mi Calm Calm - N/A   Scattered Clouds
9:10 AM 68.2 °F - 64.6 °F 88% 30.09 in 10.0 mi Calm Calm - N/A   Scattered Clouds
9:35 AM 69.4 °F - 65.1 °F 86% 30.09 in 10.0 mi Calm Calm - N/A   Scattered Clouds
9:55 AM 69.1 °F - 65.8 °F 89% 30.09 in 10.0 mi Calm Calm - N/A   Scattered Clouds
10:15 AM 71.6 °F - 65.8 °F 82% 30.08 in 10.0 mi Calm Calm - N/A   Clear
10:35 AM 74.1 °F - 66.9 °F 78% 30.08 in 10.0 mi Calm Calm - N/A   Clear
10:55 AM 77.2 °F - 66.6 °F 70% 30.07 in 10.0 mi SSW 5.8 mph - N/A   Scattered Clouds
11:15 AM 80.1 °F 81.9 °F 65.1 °F 60% 30.07 in 10.0 mi SSW 8.1 mph - N/A   Scattered Clouds
11:35 AM 80.8 °F 82.9 °F 66.0 °F 61% 30.07 in 10.0 mi SSW 4.6 mph - N/A   Clear
11:55 AM 81.7 °F 83.6 °F 65.7 °F 58% 30.06 in 10.0 mi SW 5.8 mph - N/A   Clear
12:15 PM 82.0 °F 83.9 °F 65.5 °F 57% 30.05 in 10.0 mi West 4.6 mph - N/A   Clear
12:35 PM 82.8 °F 84.5 °F 65.1 °F 55% 30.05 in 10.0 mi WNW 4.6 mph - N/A   Clear
12:55 PM 83.1 °F 85.0 °F 65.3 °F 55% 30.04 in 10.0 mi Calm Calm - N/A   Scattered Clouds
1:15 PM 82.9 °F 84.6 °F 64.8 °F 54% 30.03 in 10.0 mi Calm Calm - N/A   Mostly Cloudy
1:35 PM 82.9 °F 84.8 °F 65.3 °F 55% 30.03 in 10.0 mi SW 6.9 mph - N/A   Overcast
1:55 PM 83.5 °F 85.1 °F 64.6 °F 53% 30.03 in 10.0 mi Calm Calm - N/A   Mostly Cloudy
2:15 PM 84.7 °F 86.8 °F 66.0 °F 53% 30.02 in 10.0 mi West 5.8 mph - N/A   Mostly Cloudy
2:35 PM 83.3 °F 85.5 °F 66.2 °F 56% 30.01 in 10.0 mi WSW 5.8 mph - N/A   Mostly Cloudy
2:55 PM 83.3 °F 85.5 °F 66.2 °F 56% 30.00 in 10.0 mi West 3.5 mph - N/A   Mostly Cloudy
3:15 PM 83.8 °F 85.8 °F 65.7 °F 54% 30.00 in 10.0 mi WNW 6.9 mph - N/A   Scattered Clouds
3:35 PM 85.8 °F 87.6 °F 64.9 °F 50% 29.99 in 10.0 mi WSW 10.4 mph - N/A   Scattered Clouds
3:55 PM 85.6 °F 87.1 °F 64.6 °F 49% 29.99 in 10.0 mi WSW 8.1 mph - N/A   Scattered Clouds
4:15 PM 83.8 °F 85.1 °F 64.0 °F 51% 29.99 in 10.0 mi West 6.9 mph - N/A   Scattered Clouds
4:35 PM 84.7 °F 86.1 °F 64.4 °F 50% 29.98 in 10.0 mi West 6.9 mph - N/A   Mostly Cloudy
4:55 PM 83.5 °F 85.1 °F 64.6 °F 53% 29.98 in 10.0 mi West 8.1 mph - N/A   Scattered Clouds
5:15 PM 82.2 °F 84.7 °F 67.3 °F 60% 29.99 in 10.0 mi Calm Calm - N/A   Scattered Clouds
5:35 PM 82.9 °F 84.8 °F 65.3 °F 55% 29.99 in 10.0 mi NNW 3.5 mph - N/A   Mostly Cloudy
5:55 PM 80.2 °F 82.5 °F 66.7 °F 63% 29.99 in 10.0 mi NNW 3.5 mph - N/A   Mostly Cloudy
6:15 PM 81.1 °F 83.4 °F 66.4 °F 61% 29.99 in 7.0 mi NW 9.2 mph - N/A   Mostly Cloudy
6:35 PM 80.1 °F 81.9 °F 65.1 °F 60% 29.99 in 4.0 mi NW 10.4 mph 17.3 mph N/A   Haze
6:55 PM 79.3 °F - 64.4 °F 60% 30.00 in 5.0 mi NW 9.2 mph - N/A   Haze
7:15 PM 79.0 °F - 64.2 °F 60% 30.01 in 2.5 mi NW 8.1 mph - N/A   Haze
7:35 PM 78.1 °F - 63.7 °F 61% 30.01 in 4.0 mi NNW 6.9 mph - N/A   Haze
7:55 PM 77.0 °F - 64.0 °F 64% 30.02 in 7.0 mi North 5.8 mph - N/A   Overcast
8:15 PM 76.6 °F - 63.9 °F 65% 30.03 in 5.0 mi North 5.8 mph - N/A   Haze
8:35 PM 76.6 °F - 64.0 °F 65% 30.03 in 7.0 mi NNE 4.6 mph - N/A   Mostly Cloudy
8:55 PM 75.9 °F - 64.4 °F 67% 30.04 in 7.0 mi Calm Calm - N/A   Mostly Cloudy
9:15 PM 74.1 °F - 64.9 °F 73% 30.05 in 7.0 mi NNW 4.6 mph - N/A   Overcast
9:35 PM 73.2 °F - 64.9 °F 75% 30.05 in 5.0 mi NNW 3.5 mph - N/A   Haze
9:55 PM 73.0 °F - 64.8 °F 75% 30.06 in 10.0 mi Calm Calm - N/A   Mostly Cloudy
10:15 PM 70.3 °F - 65.8 °F 86% 30.07 in 10.0 mi North 4.6 mph - N/A   Overcast
10:35 PM 69.4 °F - 65.1 °F 86% 30.07 in 10.0 mi NW 4.6 mph - N/A   Mostly Cloudy
10:55 PM 68.9 °F - 64.8 °F 87% 30.07 in 10.0 mi Calm Calm - N/A   Mostly Cloudy
11:15 PM 67.1 °F - 64.0 °F 90% 30.09 in 10.0 mi WNW 4.6 mph - N/A   Clear
11:35 PM 66.2 °F - 64.2 °F 93% 30.09 in 10.0 mi Calm Calm - N/A   Clear
11:55 PM 66.6 °F - 64.4 °F 93% 30.10 in 10.0 mi WNW 4.6 mph - N/A   Mostly Cloudy